{"data":{"norad_id":40076,"epoch":"2026-05-24T22:43:20.081280Z","epoch_age_seconds":69731,"freshness":"FRESH","line1":"1 40076U 14037H   26144.94676020  .00007332  00000+0  42091-3 0  9996","line2":"2 40076  98.3814 134.8649 0006094   4.9095 355.2192 15.12872787644710","mean_motion":15.12872787,"eccentricity":0.0006094,"inclination_deg":98.3814,"raan_deg":134.8649,"arg_perigee_deg":4.9095,"mean_anomaly_deg":355.2192,"bstar":0.00042091,"rev_number":64471,"period_min":95.183151708049,"perigee_km":523.23590142494,"apogee_km":531.6524237459,"semimajor_km":6905.5811625854,"source":"CELESTRAK","updated_at":"2026-05-25T13:38:24.897178Z"}}